Weather History for Menominee, MI

Change the Weather History Date:

Friday, March 8, 2013

  Actual Average Record
Temperature  
Mean Temperature 20 °F -  
Max Temperature 35 °F 38 °F 70 °F (1987)
Min Temperature 6 °F 17 °F -9 °F (1967)
Degree Days  
Heating Degree Days 44    
Moisture  
Dew Point 18 °F    
Average Humidity 80    
Maximum Humidity 100    
Minimum Humidity 56    
Precipitation  
Precipitation 0.00 in - - ()
Sea Level Pressure  
Sea Level Pressure 30.41 in    
Wind  
Wind Speed 4 mph (SSW)    
Max Wind Speed 13 mph    
Max Gust Speed 18 mph    
Visibility 10 miles    
Events      
Averages and records for this station are not official NWS values.
T = Trace of Precipitation, MM = Missing Value Source: NWS Daily Summary

Daily Weather History Graph

Daily Weather History Graph

Search for Another Location

Airport:

Trip Planner

Search our weather history database for the weather conditions in past years. The results will help you decide how hot, cold, wet, or windy it might be!

Date:

Astronomy

Mar. 08, 2013 Rise Set
Actual Time 6:15 AM CST 5:47 PM CST
Civil Twilight 5:46 AM CST 6:17 PM CST
Nautical Twilight 5:12 AM CST 6:51 PM CST
Astronomical Twilight 4:37 AM CST 7:25 PM CST
Moon 4:07 AM CST (3/8) 2:35 PM CST (3/8)
Length of Visible Light 12h 30m
Length of Day
11h 32m
Waning Crescent, 11% of the Moon is Illuminated
Mar 8
Waning Crescent
Mar 11
New
Mar 19
First Quarter
Mar 27
Full
Apr 2
Last Quarter

Hourly Weather History & Observations

Time (CST) Temp. Windchill Dew Point Humidity Pressure Visibility Wind Dir Wind Speed Gust Speed Precip Events Conditions
12:15 AM 10.4 °F - 8.6 °F 92% 30.45 in 10.0 mi Calm Calm - N/A   Clear
12:35 AM 8.6 °F - 8.6 °F 100% 30.46 in 10.0 mi Calm Calm - N/A   Clear
12:55 AM 8.6 °F - 6.8 °F 92% 30.46 in 10.0 mi Calm Calm - N/A   Clear
1:15 AM 8.6 °F - 8.6 °F 100% 30.46 in 10.0 mi Calm Calm - N/A   Clear
1:35 AM 8.6 °F - 8.6 °F 100% 30.46 in 10.0 mi Calm Calm - N/A   Clear
1:55 AM 8.6 °F - 6.8 °F 92% 30.46 in 10.0 mi Calm Calm - N/A   Clear
2:15 AM 8.6 °F - 1.4 °F 73% 30.45 in 10.0 mi Calm Calm - N/A   Clear
2:35 AM 8.6 °F - 3.2 °F 79% 30.45 in 10.0 mi Calm Calm - N/A   Clear
2:55 AM 6.8 °F - 6.8 °F 100% 30.45 in 10.0 mi Calm Calm - N/A   Clear
3:15 AM 6.8 °F - 6.8 °F 100% 30.45 in 10.0 mi Calm Calm - N/A   Mostly Cloudy
3:35 AM 8.6 °F - 8.6 °F 100% 30.46 in 10.0 mi Calm Calm - N/A   Overcast
3:55 AM 6.8 °F - 6.8 °F 100% 30.46 in 10.0 mi Calm Calm - N/A   Mostly Cloudy
4:15 AM 6.8 °F - 6.8 °F 100% 30.47 in 10.0 mi Calm Calm - N/A   Mostly Cloudy
4:35 AM 8.6 °F - 6.8 °F 92% 30.47 in 10.0 mi Calm Calm - N/A   Overcast
4:55 AM 8.6 °F - 5.0 °F 85% 30.47 in 10.0 mi Calm Calm - N/A   Overcast
5:15 AM 10.4 °F - 6.8 °F 85% 30.47 in 10.0 mi Calm Calm - N/A   Overcast
5:35 AM 10.4 °F 4.0 °F 8.6 °F 92% 30.48 in 10.0 mi WNW 3.5 mph - N/A   Overcast
5:55 AM 10.4 °F - 8.6 °F 92% 30.48 in 10.0 mi Calm Calm - N/A   Overcast
6:15 AM 10.4 °F - 8.6 °F 92% 30.48 in 10.0 mi Calm Calm - N/A   Overcast
6:35 AM 10.4 °F - 8.6 °F 92% 30.48 in 10.0 mi Calm Calm - N/A   Overcast
6:55 AM 12.2 °F - 10.4 °F 92% 30.47 in 10.0 mi Calm Calm - N/A   Overcast
7:15 AM 12.2 °F - 10.4 °F 92% 30.47 in 10.0 mi Calm Calm - N/A   Overcast
7:35 AM 15.8 °F - 12.2 °F 86% 30.48 in 10.0 mi Calm Calm - N/A   Overcast
7:55 AM 15.8 °F - 10.4 °F 79% 30.48 in 10.0 mi Calm Calm - N/A   Overcast
8:15 AM 19.4 °F - 15.8 °F 86% 30.47 in 10.0 mi Calm Calm - N/A   Overcast
8:35 AM 21.2 °F - 15.8 °F 80% 30.47 in 10.0 mi Calm Calm - N/A   Mostly Cloudy
8:55 AM 24.8 °F - 19.4 °F 80% 30.47 in 9.0 mi Calm Calm - N/A   Partly Cloudy
9:15 AM 26.6 °F - 19.4 °F 74% 30.47 in 10.0 mi Calm Calm - N/A   Partly Cloudy
9:35 AM 28.4 °F 21.2 °F 21.2 °F 74% 30.47 in 10.0 mi South 6.9 mph - N/A   Scattered Clouds
9:55 AM 28.4 °F 19.1 °F 21.2 °F 74% 30.47 in 10.0 mi South 10.4 mph - N/A   Partly Cloudy
10:15 AM 30.2 °F 20.8 °F 21.2 °F 69% 30.47 in 10.0 mi SSE 11.5 mph - N/A   Partly Cloudy
10:35 AM 30.2 °F 21.9 °F 21.2 °F 69% 30.46 in 10.0 mi South 9.2 mph - N/A   Mostly Cloudy
10:55 AM 30.2 °F 21.3 °F 21.2 °F 69% 30.46 in 10.0 mi SSW 10.4 mph - N/A   Partly Cloudy
11:15 AM 30.2 °F 20.2 °F 19.4 °F 64% 30.45 in 10.0 mi SSW 12.7 mph - N/A   Clear
11:35 AM 32.0 °F 22.5 °F 19.4 °F 60% 30.45 in 10.0 mi SW 12.7 mph 16.1 mph N/A   Clear
11:55 AM 32.0 °F 23.6 °F 19.4 °F 60% 30.45 in 10.0 mi South 10.4 mph - N/A   Clear
12:15 PM 32.0 °F 23.0 °F 19.4 °F 60% 30.44 in 10.0 mi SW 11.5 mph - N/A   Clear
12:35 PM 33.8 °F 24.8 °F 19.4 °F 56% 30.43 in 10.0 mi SSW 12.7 mph - N/A   Clear
12:55 PM 33.8 °F 24.8 °F 21.2 °F 60% 30.42 in 10.0 mi SSW 12.7 mph - N/A   Clear
1:15 PM 33.8 °F 25.3 °F 21.2 °F 60% 30.40 in 10.0 mi SSW 11.5 mph 18.4 mph N/A   Clear
1:35 PM 33.8 °F 25.8 °F 21.2 °F 60% 30.40 in 10.0 mi SSW 10.4 mph 16.1 mph N/A   Clear
1:55 PM 33.8 °F 26.4 °F 21.2 °F 60% 30.40 in 10.0 mi SSW 9.2 mph 16.1 mph N/A   Clear
2:15 PM 33.8 °F 25.3 °F 23.0 °F 65% 30.39 in 10.0 mi SSW 11.5 mph 16.1 mph N/A   Clear
2:35 PM 33.8 °F 24.8 °F 23.0 °F 65% 30.39 in 10.0 mi SSW 12.7 mph - N/A   Clear
2:55 PM 35.6 °F 27.5 °F 23.0 °F 60% 30.39 in 10.0 mi SSW 11.5 mph - N/A   Clear
3:15 PM 35.6 °F 28.0 °F 21.2 °F 56% 30.38 in 10.0 mi SSW 10.4 mph - N/A   Clear
3:35 PM 35.6 °F 28.0 °F 21.2 °F 56% 30.37 in 10.0 mi South 10.4 mph - N/A   Clear
3:55 PM 35.6 °F 28.6 °F 23.0 °F 60% 30.37 in 10.0 mi SW 9.2 mph - N/A   Clear
4:15 PM 35.6 °F 28.0 °F 23.0 °F 60% 30.37 in 10.0 mi South 10.4 mph - N/A   Clear
4:35 PM 35.6 °F 27.5 °F 23.0 °F 60% 30.36 in 10.0 mi South 11.5 mph - N/A   Clear
4:55 PM 33.8 °F 27.0 °F 23.0 °F 65% 30.36 in 10.0 mi South 8.1 mph - N/A   Clear
5:15 PM 33.8 °F 25.8 °F 24.8 °F 70% 30.36 in 10.0 mi South 10.4 mph - N/A   Clear
5:35 PM 32.0 °F 23.6 °F 26.6 °F 80% 30.36 in 10.0 mi South 10.4 mph - N/A   Clear
5:55 PM 30.2 °F 23.4 °F 24.8 °F 80% 30.36 in 10.0 mi South 6.9 mph - N/A   Clear
6:15 PM 30.2 °F 24.3 °F 26.6 °F 86% 30.36 in 10.0 mi SSW 5.8 mph - N/A   Clear
6:35 PM 30.2 °F 24.3 °F 26.6 °F 86% 30.36 in 10.0 mi SSW 5.8 mph - N/A   Clear
6:55 PM 30.2 °F 23.4 °F 24.8 °F 80% 30.36 in 10.0 mi SSW 6.9 mph - N/A   Clear
7:15 PM 30.2 °F 22.6 °F 24.8 °F 80% 30.36 in 10.0 mi South 8.1 mph - N/A   Clear
7:35 PM 30.2 °F 22.6 °F 24.8 °F 80% 30.36 in 10.0 mi SSW 8.1 mph - N/A   Clear
7:55 PM 30.2 °F 23.4 °F 24.8 °F 80% 30.36 in 10.0 mi SSW 6.9 mph - N/A   Clear
8:15 PM 30.2 °F 23.4 °F 24.8 °F 80% 30.36 in 10.0 mi South 6.9 mph - N/A   Clear
8:35 PM 28.4 °F 20.4 °F 24.8 °F 86% 30.35 in 10.0 mi SSW 8.1 mph - N/A   Clear
8:55 PM 28.4 °F 22.2 °F 24.8 °F 86% 30.35 in 10.0 mi South 5.8 mph - N/A   Clear
9:15 PM 28.4 °F 22.2 °F 24.8 °F 86% 30.34 in 10.0 mi SSW 5.8 mph - N/A   Clear
9:35 PM 28.4 °F 22.2 °F 24.8 °F 86% 30.34 in 10.0 mi SSW 5.8 mph - N/A   Clear
9:55 PM 28.4 °F 21.2 °F 24.8 °F 86% 30.33 in 10.0 mi SSW 6.9 mph - N/A   Clear
10:15 PM 28.4 °F 21.2 °F 24.8 °F 86% 30.33 in 10.0 mi SSW 6.9 mph - N/A   Clear
10:35 PM 28.4 °F 20.4 °F 24.8 °F 86% 30.32 in 10.0 mi SSW 8.1 mph - N/A   Clear
10:55 PM 28.4 °F 21.2 °F 26.6 °F 93% 30.32 in 10.0 mi SSW 6.9 mph - N/A   Clear
11:15 PM 26.6 °F 20.0 °F 26.6 °F 100% 30.31 in 10.0 mi SSW 5.8 mph - N/A   Clear
11:35 PM 26.6 °F 21.2 °F 26.6 °F 100% 30.31 in 8.0 mi SSW 4.6 mph - N/A   Clear
11:55 PM 26.6 °F 21.2 °F 24.8 °F 93% 30.30 in 7.0 mi SW 4.6 mph - N/A   Clear